Regional Weather Roundup
Issued by NWS Green Bay, WI

Home | Current Version | Previous Version | Graphics & Text | Print | Product List | Glossary Off
Versions: 1 2 3 4 5 6 7 8 9 10 11 12 13 14 15 16 17 18 19 20 21 22 23 24 25 26 27 28 29 30 31 32 33 34 35 36 37 38 39 40 41 42 43 44 45 46 47 48 49 50

000
ASUS43 KGRB 261511
RWRGRB

NORTH-CENTRAL AND NORTHEAST WISCONSIN REGIONAL WEATHER ROUNDUP
NATIONAL WEATHER SERVICE GREEN BAY WI
1000 AM CDT FRI AUG 26 2016

WIZ005-009-010>012-018-019-261600-
NORTH CENTRAL WISCONSIN

CITY           SKY/WX    TMP DP  RH WIND       PRES   REMARKS
IRONWOOD       MOSUNNY   63  54  72 NW10      30.17R
MANITOWISH WTR CLOUDY    60  56  87 W8        30.17S
ARBOR VITAE    PTSUNNY   62  56  81 W5        30.18R
EAGLE RIVER    CLOUDY    61  53  74 W5        30.17R
LAND O LAKES   PTSUNNY   62  53  72 NW8       30.17R
RHINELANDER    PTSUNNY   60  55  83 NW7       30.19R
PHILLIPS       MOSUNNY   62  55  76 NW6       30.18R
ANTIGO         SUNNY     63  54  74 W8        30.19R
TOMAHAWK       PTSUNNY   61  54  76 NW3       30.19S
MERRILL        SUNNY     63  54  72 NW8       30.19S
$$

WIZ013-073-261600-
NORTHEAST WISCONSIN

CITY           SKY/WX    TMP DP  RH WIND       PRES   REMARKS
IRON MOUNTAIN  MOSUNNY   64  54  69 W9        30.13S
MARINETTE      SUNNY    N/A N/A N/A VRB6      30.15R
OCONTO         SUNNY     67  56  66 W8        30.15R
$$

WIZ017-030-035>037-045-261600-
CENTRAL WISCONSIN

CITY           SKY/WX    TMP DP  RH WIND       PRES   REMARKS
MEDFORD        MOSUNNY   62  58  85 NW8       30.19F
WAUSAU         SUNNY     64  54  69 NW7       30.17S
MOSINEE        MOSUNNY   64  57  77 W8        30.20R
MARSHFIELD     SUNNY     65  55  70 W6        30.19S
WISC RAPIDS    SUNNY     66  57  72 VRB3      30.21R
STEVENS POINT  SUNNY     64  53  67 W6        30.19S
WAUPACA        SUNNY     69  56  63 W6        30.19S
SHAWANO        SUNNY     68  56  65 W8        30.17S
CLINTONVILLE   SUNNY     66  54  63 NW9       30.18R
WAUTOMA        CLOUDY    67  58  72 W6        30.21R
$$

WIZ038-039-048-051-261600-
FOX VALLEY

CITY           SKY/WX    TMP DP  RH WIND       PRES   REMARKS
NWS GREEN BAY  SUNNY     68  60  75 NW9       30.17R
APPLETON       PTSUNNY   66  54  63 NW7       30.17R
OSHKOSH        MOSUNNY   67  57  70 NW5       30.19R
FOND DU LAC    MOSUNNY   69  57  65 W8        30.19R
$$

WIZ022-050-052-261600-
EAST CENTRAL WISCONSIN

CITY           SKY/WX    TMP DP  RH WIND       PRES   REMARKS
EPHRAIM        FAIR      66  58  75 NW5       30.14R
WASHINGTON ISL NOT AVBL
STURGEON BAY   SUNNY     67  57  70 W7        30.16R
MANITOWOC      MOSUNNY   68  57  68 W8        30.18R
SHEBOYGAN      PTSUNNY   69  58  67 NW7       30.17S
$$

LMZ563-521-522-541>543-261600-
LAKESHORE

STATION/POSITION TIME  TEMP    WIND        PRES    VSBY  WAVE
                       AIR SEA DIR/SP/G                  HT/PER
                 (UTC) (F)     (DEG/KT/KT) (MB)    (MI)  (FT/S)
SHEBOYGAN LKSHOR 1500   67     290/  6/  8 1021.3R
KEWAUNEE LKSHORE 1400   64     280/  6/  9 1020.4R
NORTHPORT PIER   1400   67     310/  5/ 10 1020.0R
N MID LAKE BUOY  1450   64 70  260/ 10/ 14 1019.5R         1/ 4
S GREEN BAY BUOY 1400   63 72  280/  8/ 10 1020.2R
CHAMBERS ISLAND  1400   68     280/  3/  6 1020.0R
MENOMINEE LKSHOR 1400   65     260/  7/  9 1019.5R
$$



USA.gov is the U.S. government's official web portal to all federal, state and local government web resources and services.